When you browse on this site, cookies collect data to enhance your experience and personalize the content and advertising you see.
Visit our Privacy Policy to learn more. By continuing to use the site, you agree to this use of cookies and data.
  • In Latvia
  • List of Countries
  • For 7 days
  • Water Temperature
  • Weather Map
  • Weather Widgets
  • user-avatar
    Login

    Hourly Weather Szekszard

    Today, 18 September, Wednesday

    Time Temperature Precipitation Wind Pressure Humidity
    00:00 +19°C° 0.1 mm 4 mps 753 mmHg 69%
    01:00 +18°C° 0 mm 3 mps 753 mmHg 77%
    02:00 +17°C° 0 mm 3 mps 753 mmHg 75%
    03:00 +15°C° 0 mm 4 mps 754 mmHg 73%
    04:00 +14°C° 0 mm 4 mps 754 mmHg 70%
    05:00 +14°C° 0 mm 5 mps 755 mmHg 66%
    06:00 +14°C° 0 mm 5 mps 756 mmHg 62%
    07:00 +13°C° 0 mm 6 mps 757 mmHg 58%
    08:00 +14°C° 0 mm 5 mps 758 mmHg 53%
    09:00 +15°C° 0 mm 5 mps 758 mmHg 47%
    10:00 +15°C° 0 mm 4 mps 759 mmHg 42%
    11:00 +17°C° 0 mm 4 mps 759 mmHg 37%
    12:00 +18°C° 0 mm 4 mps 759 mmHg 32%
    13:00 +19°C° 0 mm 4 mps 759 mmHg 27%
    14:00 +19°C° 0 mm 3 mps 758 mmHg 27%
    15:00 +19°C° 0 mm 3 mps 758 mmHg 28%
    16:00 +19°C° 0 mm 3 mps 758 mmHg 28%
    17:00 +17°C° 0 mm 3 mps 758 mmHg 36%
    18:00 +15°C° 0 mm 2 mps 758 mmHg 44%
    19:00 +13°C° 0 mm 2 mps 758 mmHg 52%
    20:00 +13°C° 0 mm 2 mps 758 mmHg 56%
    21:00 +12°C° 0 mm 2 mps 759 mmHg 60%
    22:00 +12°C° 0 mm 2 mps 759 mmHg 64%
    23:00 +12°C° 0 mm 2 mps 759 mmHg 62%

    Tomorrow, 19 September, Thursday

    Time Temperature Precipitation Wind Pressure Humidity
    00:00 +10°C° 0 mm 2 mps 759 mmHg 60%
    01:00 +11°C° 0 mm 1 mps 759 mmHg 58%
    02:00 +11°C° 0 mm 1 mps 759 mmHg 56%
    03:00 +10°C° 0 mm 2 mps 759 mmHg 54%
    04:00 +9°C° 0 mm 2 mps 759 mmHg 52%
    05:00 +10°C° 0 mm 2 mps 759 mmHg 53%
    06:00 +12°C° 0 mm 2 mps 759 mmHg 54%
    07:00 +11°C° 0 mm 3 mps 760 mmHg 54%
    08:00 +13°C° 0 mm 3 mps 760 mmHg 49%
    09:00 +15°C° 0 mm 4 mps 760 mmHg 44%
    10:00 +18°C° 0 mm 4 mps 761 mmHg 38%
    11:00 +17°C° 0 mm 5 mps 760 mmHg 36%
    12:00 +19°C° 0 mm 5 mps 760 mmHg 34%
    13:00 +19°C° 0 mm 5 mps 760 mmHg 32%
    14:00 +19°C° 0 mm 5 mps 760 mmHg 32%
    15:00 +19°C° 0 mm 5 mps 759 mmHg 31%
    16:00 +17°C° 0 mm 5 mps 759 mmHg 31%
    17:00 +15°C° 0 mm 4 mps 759 mmHg 36%
    18:00 +13°C° 0 mm 3 mps 760 mmHg 41%
    19:00 +12°C° 0 mm 3 mps 760 mmHg 46%
    20:00 +11°C° 0 mm 3 mps 760 mmHg 49%
    21:00 +10°C° 0 mm 3 mps 761 mmHg 51%
    22:00 +10°C° 0 mm 3 mps 761 mmHg 54%
    23:00 +9°C° 0 mm 2 mps 761 mmHg 56%

    Day after tomorrow, 20 September, Friday

    Time Temperature Precipitation Wind Pressure Humidity
    00:00 +9°C° 0 mm 2 mps 761 mmHg 58%
    01:00 +8°C° 0 mm 2 mps 761 mmHg 60%
    02:00 +8°C° 0 mm 2 mps 761 mmHg 62%
    03:00 +7°C° 0 mm 2 mps 761 mmHg 65%
    04:00 +7°C° 0 mm 2 mps 761 mmHg 68%
    05:00 +8°C° 0 mm 2 mps 761 mmHg 67%
    06:00 +8°C° 0 mm 2 mps 761 mmHg 65%
    07:00 +9°C° 0 mm 2 mps 762 mmHg 64%
    08:00 +12°C° 0 mm 1 mps 762 mmHg 56%
    09:00 +14°C° 0 mm 1 mps 762 mmHg 49%
    10:00 +18°C° 0 mm 1 mps 762 mmHg 41%
    11:00 +19°C° 0 mm 1 mps 762 mmHg 37%
    12:00 +20°C° 0 mm 1 mps 762 mmHg 33%
    13:00 +21°C° 0 mm 1 mps 761 mmHg 29%
    14:00 +20°C° 0 mm 1 mps 761 mmHg 29%
    15:00 +20°C° 0 mm 1 mps 760 mmHg 28%
    16:00 +20°C° 0 mm 1 mps 760 mmHg 28%
    17:00 +18°C° 0 mm 1 mps 760 mmHg 32%
    18:00 +16°C° 0 mm 1 mps 761 mmHg 36%
    19:00 +14°C° 0 mm 1 mps 761 mmHg 39%
    20:00 +13°C° 0 mm 1 mps 761 mmHg 41%
    21:00 +13°C° 0 mm 1 mps 761 mmHg 42%
    22:00 +12°C° 0 mm 1 mps 761 mmHg 44%
    23:00 +12°C° 0 mm 1 mps 761 mmHg 45%

    21 September, Saturday

    Time Temperature Precipitation Wind Pressure Humidity
    00:00 +11°C° 0 mm 1 mps 761 mmHg 47%
    01:00 +11°C° 0 mm 1 mps 761 mmHg 48%
    02:00 +11°C° 0 mm 1 mps 761 mmHg 50%
    03:00 +10°C° 0 mm 1 mps 761 mmHg 51%
    04:00 +10°C° 0 mm 1 mps 761 mmHg 52%
    05:00 +11°C° 0 mm 1 mps 761 mmHg 51%
    06:00 +11°C° 0 mm 1 mps 761 mmHg 49%
    07:00 +12°C° 0 mm 1 mps 761 mmHg 47%
    08:00 +14°C° 0 mm 2 mps 761 mmHg 42%
    09:00 +17°C° 0 mm 3 mps 761 mmHg 36%
    10:00 +19°C° 0 mm 3 mps 761 mmHg 30%
    11:00 +20°C° 0 mm 3 mps 761 mmHg 28%
    12:00 +21°C° 0 mm 3 mps 760 mmHg 26%
    13:00 +22°C° 0 mm 3 mps 760 mmHg 24%
    14:00 +22°C° 0 mm 3 mps 759 mmHg 23%
    15:00 +22°C° 0 mm 3 mps 759 mmHg 23%
    16:00 +22°C° 0 mm 3 mps 758 mmHg 23%
    17:00 +20°C° 0 mm 2 mps 758 mmHg 27%
    18:00 +17°C° 0 mm 2 mps 758 mmHg 30%
    19:00 +15°C° 0 mm 2 mps 758 mmHg 33%
    20:00 +15°C° 0 mm 2 mps 758 mmHg 33%
    21:00 +14°C° 0 mm 2 mps 758 mmHg 33%
    22:00 +13°C° 0 mm 2 mps 758 mmHg 33%
    23:00 +13°C° 0 mm 2 mps 758 mmHg 34%

    22 September, Sunday

    Time Temperature Precipitation Wind Pressure Humidity
    00:00 +13°C° 0 mm 2 mps 758 mmHg 35%
    01:00 +12°C° 0 mm 2 mps 758 mmHg 36%
    02:00 +12°C° 0 mm 2 mps 757 mmHg 38%
    03:00 +12°C° 0 mm 2 mps 757 mmHg 40%
    04:00 +10°C° 0 mm 2 mps 756 mmHg 42%
    05:00 +11°C° 0 mm 3 mps 756 mmHg 41%
    06:00 +12°C° 0 mm 3 mps 756 mmHg 40%
    07:00 +12°C° 0 mm 3 mps 756 mmHg 39%
    08:00 +16°C° 0 mm 3 mps 756 mmHg 35%
    09:00 +19°C° 0 mm 4 mps 756 mmHg 31%
    10:00 +22°C° 0 mm 4 mps 756 mmHg 26%
    11:00 +25°C° 0 mm 4 mps 755 mmHg 26%
    12:00 +26°C° 0 mm 4 mps 754 mmHg 25%
    13:00 +28°C° 0 mm 5 mps 754 mmHg 25%
    14:00 +28°C° 0 mm 4 mps 753 mmHg 27%
    15:00 +28°C° 0 mm 4 mps 753 mmHg 30%
    16:00 +28°C° 0 mm 4 mps 752 mmHg 32%
    17:00 +27°C° 0 mm 3 mps 752 mmHg 37%
    18:00 +25°C° 0 mm 3 mps 752 mmHg 42%
    19:00 +24°C° 0 mm 2 mps 752 mmHg 47%
    20:00 +23°C° 0 mm 2 mps 752 mmHg 50%
    21:00 +22°C° 0 mm 3 mps 752 mmHg 54%
    22:00 +22°C° 0 mm 3 mps 752 mmHg 57%
    23:00 +21°C° 0 mm 3 mps 752 mmHg 61%

    23 September, Monday

    Time Temperature Precipitation Wind Pressure Humidity
    00:00 +20°C° 0 mm 3 mps 751 mmHg 65%
    01:00 +19°C° 0 mm 3 mps 751 mmHg 68%
    02:00 +19°C° 0 mm 3 mps 751 mmHg 69%
    03:00 +19°C° 0 mm 3 mps 751 mmHg 69%
    04:00 +19°C° 0 mm 3 mps 751 mmHg 69%
    05:00 +19°C° 0 mm 3 mps 750 mmHg 68%
    06:00 +20°C° 0 mm 2 mps 750 mmHg 66%
    07:00 +20°C° 0 mm 2 mps 750 mmHg 64%
    08:00 +22°C° 0 mm 3 mps 751 mmHg 58%
    09:00 +25°C° 0 mm 4 mps 751 mmHg 52%
    10:00 +26°C° 0 mm 4 mps 751 mmHg 46%
    11:00 +25°C° 0.9 mm 4 mps 750 mmHg 59%
    12:00 +22°C° 0.9 mm 4 mps 750 mmHg 72%
    13:00 +20°C° 0.9 mm 4 mps 750 mmHg 84%
    14:00 +20°C° 1.8 mm 4 mps 750 mmHg 86%
    15:00 +19°C° 1.8 mm 3 mps 750 mmHg 88%
    16:00 +19°C° 1.8 mm 3 mps 750 mmHg 89%
    17:00 +19°C° 0.1 mm 3 mps 750 mmHg 87%
    18:00 +18°C° 0.1 mm 4 mps 750 mmHg 84%
    19:00 +17°C° 0.1 mm 5 mps 751 mmHg 82%
    20:00 +17°C° 0.1 mm 5 mps 751 mmHg 82%
    21:00 +16°C° 0.1 mm 5 mps 751 mmHg 82%
    22:00 +16°C° 0.1 mm 5 mps 751 mmHg 83%
    23:00 +16°C° 0.5 mm 6 mps 751 mmHg 84%
    Show more